Location: Colorado Springs
(38.8340°N, 104.8210°W)
Time: 13:58:44
(UTC-06:00)

Vanguard 2 Rocket - Visible Passes

Search period start: 15 July 2018 00:00
Search period end: 25 July 2018 00:00
Orbit: 553 x 3327 km, 32.9° (Epoch: 15 July)

Date Brightness Start Highest point End Pass type
(mag) Time Alt. Az. Time Alt. Az. Time Alt. Az.
15 Jul 9.0 02:37:07 16° SE 02:37:33 16° SE 02:42:49 10° E visible
15 Jul 8.5 04:42:56 14° SW 04:49:43 51° SSE 05:02:52 10° E visible
16 Jul 8.2 03:46:45 26° SSW 03:50:08 38° SSE 04:00:27 10° E visible
17 Jul 8.5 02:50:36 24° SSE 02:50:59 25° SE 02:58:09 10° E visible
17 Jul 8.3 04:56:24 11° WSW 05:03:43 59° SSE 05:17:05 10° E visible
18 Jul 9.3 01:54:26 11° ESE 01:54:26 11° ESE 01:55:18 10° ESE visible
18 Jul 8.0 04:00:15 26° SW 04:03:59 47° SSE 04:14:49 10° E visible
19 Jul 7.9 03:04:05 33° SSE 03:04:40 34° SSE 03:12:50 10° E visible
19 Jul 8.2 05:10:29 10° WSW 05:17:52 62° S 05:31:15 10° E visible
20 Jul 8.8 02:07:57 18° ESE 02:07:57 18° ESE 02:10:59 10° E visible
20 Jul 7.8 04:13:45 23° SW 04:18:02 55° SSE 04:29:04 10° E visible
21 Jul 7.5 03:17:37 41° S 03:18:36 43° SSE 03:27:14 10° E visible
22 Jul 8.4 02:21:30 25° ESE 02:21:30 25° ESE 02:25:47 10° E visible
22 Jul 7.8 04:27:19 18° WSW 04:32:14 58° S 04:43:14 10° E visible
23 Jul 7.2 03:31:14 42° SSW 03:32:42 50° SSE 03:41:31 10° E visible
24 Jul 7.9 02:35:11 32° SE 02:35:11 32° SE 02:40:14 10° E visible
24 Jul 7.8 04:40:59 14° WSW 04:46:29 56° S 04:57:19 10° ESE visible
